Station PRYC1 - 9415020 - Point Reyes, CA Image indicating link to RSS feed of recent meteorological observations for station PRYC1


Conditions at PRYC1 as of
(4:18 pm PDT)
2318 GMT on 06/13/2024:
     

Click on the graph icon in the table below to see a time series plot of the last five days of that observation.

5-day plot - Atmospheric Pressure Atmospheric Pressure (PRES):30.01 in
NOS Water Level Observation Network Water Level
Previous observations
TIME
(PDT)
5-day plot - Wind Direction
WDIR
 
5-day plot - Wind Speed
WSPD
kts
5-day plot - Wind Gust
GST
kts
5-day plot - Wave Height
WVHT
ft
5-day plot - Dominant Wave Period
DPD
sec
5-day plot - Average Wave Period
APD
sec
5-day plot - Mean Wave Direction
MWD
 
5-day plot - Atmospheric Pressure
PRES
in
5-day plot - Pressure Tendency
PTDY
in
5-day plot - Air Temperature
ATMP
°F
5-day plot - Water Temperature
WTMP
°F
5-day plot - Dew Point
DEWP
°F
5-day plot - Salinity
SAL
psu
5-day plot - Visibility
VIS
nmi
5-day plot - Tide (above MLLW)
TIDE
ft
2024-06-13 04:12 pm-------30.01-------
2024-06-13 04:06 pm-------30.01-------
2024-06-13 04:00 pm-------30.01+0.02------
2024-06-13 03:54 pm-------30.01-------
2024-06-13 03:48 pm-------30.01-------
2024-06-13 03:42 pm-------30.01-------
2024-06-13 03:36 pm-------30.01-------
2024-06-13 03:30 pm-------30.01-------
2024-06-13 03:24 pm-------30.01-------
2024-06-13 03:18 pm-------30.01-------
2024-06-13 03:12 pm-------30.01-------
2024-06-13 03:06 pm-------30.01-------
2024-06-13 03:00 pm-------30.01+0.02------
2024-06-13 02:54 pm-------30.01-------
2024-06-13 02:48 pm-------30.01-------
2024-06-13 02:42 pm-------30.01-------
2024-06-13 02:36 pm-------30.01-------
2024-06-13 02:30 pm-------30.01-------
2024-06-13 02:24 pm-------30.01-------
2024-06-13 02:18 pm-------30.01-------
2024-06-13 02:12 pm-------30.01-------
2024-06-13 02:06 pm-------30.01-------
2024-06-13 02:00 pm-------30.01+0.04------
2024-06-13 01:54 pm-------30.01-------
2024-06-13 01:48 pm-------30.01-------
2024-06-13 01:42 pm-------30.01-------
2024-06-13 01:36 pm-------30.01-------
2024-06-13 01:30 pm-------30.01-------
2024-06-13 01:24 pm-------30.00-------
2024-06-13 01:18 pm-------30.00-------
2024-06-13 01:12 pm-------30.00-------
2024-06-13 01:06 pm-------30.00-------
2024-06-13 01:00 pm-------30.00+0.03------
2024-06-13 12:54 pm-------30.00-------
2024-06-13 12:48 pm-------30.00-------
2024-06-13 12:42 pm-------30.00-------
2024-06-13 12:36 pm-------29.99-------
2024-06-13 12:30 pm-------29.99-------
2024-06-13 12:24 pm-------29.99-------
2024-06-13 12:18 pm-------29.99-------
2024-06-13 12:12 pm-------29.99-------
2024-06-13 12:06 pm-------29.99-------
2024-06-13 12:00 pm-------29.99+0.02------
2024-06-13 11:54 am-------29.99-------
2024-06-13 11:48 am-------29.98-------
2024-06-13 11:42 am-------29.98-------
2024-06-13 11:36 am-------29.98-------
2024-06-13 11:30 am-------29.98-------
2024-06-13 11:24 am-------29.98-------
2024-06-13 11:18 am-------29.98-------
2024-06-13 11:12 am-------29.98-------
2024-06-13 11:06 am-------29.98-------
2024-06-13 11:00 am-------29.98+0.02------
2024-06-13 10:54 am-------29.98-------
2024-06-13 10:48 am-------29.98-------
2024-06-13 10:42 am-------29.98-------
2024-06-13 10:36 am-------29.97-------
2024-06-13 10:30 am-------29.97-------
2024-06-13 10:24 am-------29.97-------
2024-06-13 10:18 am-------29.97-------
2024-06-13 10:12 am-------29.97-------
2024-06-13 10:06 am-------29.97-------
2024-06-13 10:00 am-------29.97+0.03------
2024-06-13 09:54 am-------29.96-------
2024-06-13 09:48 am-------29.97-------
2024-06-13 09:42 am-------29.97-------
2024-06-13 09:36 am-------29.96-------
2024-06-13 09:30 am-------29.96-------
2024-06-13 09:24 am-------29.96-------
2024-06-13 09:18 am-------29.96-------
2024-06-13 09:12 am-------29.96-------
2024-06-13 09:06 am-------29.96-------
2024-06-13 09:00 am-------29.96+0.05------
2024-06-13 08:54 am-------29.96-------
2024-06-13 08:48 am-------29.96-------
2024-06-13 08:42 am-------29.96-------
2024-06-13 08:36 am-------29.96-------
2024-06-13 08:30 am-------29.96-------
2024-06-13 08:24 am-------29.96-------
2024-06-13 08:18 am-------29.96-------
2024-06-13 08:12 am-------29.96-------
2024-06-13 08:06 am-------29.95-------
2024-06-13 08:00 am-------29.95+0.04------
2024-06-13 07:54 am-------29.95-------
2024-06-13 07:48 am-------29.95-------
2024-06-13 07:42 am-------29.95-------
2024-06-13 07:36 am-------29.94-------
2024-06-13 07:30 am-------29.94-------
2024-06-13 07:24 am-------29.94-------
2024-06-13 07:18 am-------29.94-------
2024-06-13 07:12 am-------29.94-------
2024-06-13 07:06 am-------29.94-------
2024-06-13 07:00 am-------29.94+0.03------
2024-06-13 06:54 am-------29.94-------
2024-06-13 06:48 am-------29.93-------
2024-06-13 06:42 am-------29.93-------
2024-06-13 06:36 am-------29.93-------
2024-06-13 06:30 am-------29.93-------
2024-06-13 06:24 am-------29.92-------
2024-06-13 06:18 am-------29.92-------
2024-06-13 06:12 am-------29.92-------
2024-06-13 06:06 am-------29.92-------
2024-06-13 06:00 am-------29.92+0.01------
2024-06-13 05:54 am-------29.91-------
2024-06-13 05:48 am-------29.91-------
2024-06-13 05:42 am-------29.91-------
2024-06-13 05:36 am-------29.91-------
2024-06-13 05:30 am-------29.91-------
2024-06-13 05:24 am-------29.91-------
2024-06-13 05:18 am-------29.91-------
2024-06-13 05:12 am-------29.91-------
2024-06-13 05:06 am-------29.91-------
2024-06-13 05:00 am-------29.91+0.00------
2024-06-13 04:54 am-------29.91-------
2024-06-13 04:48 am-------29.91-------
2024-06-13 04:42 am-------29.91-------
2024-06-13 04:36 am-------29.91-------
2024-06-13 04:30 am-------29.91-------
2024-06-13 04:24 am-------29.91-------
2024-06-13 04:18 am-------29.91-------
2024-06-13 04:12 am-------29.91-------
2024-06-13 04:06 am-------29.91-------
2024-06-13 04:00 am-------29.91-0.01------
2024-06-13 03:54 am-------29.91-------
2024-06-13 03:48 am-------29.90-------
2024-06-13 03:42 am-------29.91-------
2024-06-13 03:36 am-------29.90-------
2024-06-13 03:30 am-------29.90-------
2024-06-13 03:24 am-------29.91-------
2024-06-13 03:18 am-------29.91-------
2024-06-13 03:12 am-------29.91-------
2024-06-13 03:06 am-------29.91-------
2024-06-13 03:00 am-------29.91-0.01------
2024-06-13 02:54 am-------29.91-------
2024-06-13 02:48 am-------29.91-------
2024-06-13 02:42 am-------29.91-------
2024-06-13 02:36 am-------29.91-------
2024-06-13 02:30 am-------29.91-------
2024-06-13 02:24 am-------29.91-------
2024-06-13 02:18 am-------29.91-------
2024-06-13 02:12 am-------29.91-------
2024-06-13 02:06 am-------29.91-------
2024-06-13 02:00 am-------29.91+0.00------
2024-06-13 01:54 am-------29.91-------
2024-06-13 01:48 am-------29.91-------
2024-06-13 01:42 am-------29.91-------
2024-06-13 01:36 am-------29.92-------
2024-06-13 01:30 am-------29.92-------
2024-06-13 01:24 am-------29.91-------
2024-06-13 01:18 am-------29.92-------
2024-06-13 01:12 am-------29.92-------
2024-06-13 01:06 am-------29.92-------
2024-06-13 01:00 am-------29.92+0.00------
2024-06-13 12:54 am-------29.92-------
2024-06-13 12:48 am-------29.92-------
2024-06-13 12:42 am-------29.92-------
2024-06-13 12:36 am-------29.92-------
2024-06-13 12:30 am-------29.92-------
2024-06-13 12:24 am-------29.92-------
2024-06-13 12:18 am-------29.92-------
2024-06-13 12:12 am-------29.92-------
2024-06-13 12:06 am-------29.92-------
2024-06-13 12:00 am-------29.92+0.01------
2024-06-12 11:54 pm-------29.92-------
2024-06-12 11:48 pm-------29.92-------
2024-06-12 11:42 pm-------29.92-------
2024-06-12 11:36 pm-------29.92-------
2024-06-12 11:30 pm-------29.92-------
2024-06-12 11:24 pm-------29.92-------
2024-06-12 11:18 pm-------29.92-------
2024-06-12 11:12 pm-------29.92-------
2024-06-12 11:06 pm-------29.92-------
2024-06-12 11:00 pm-------29.92+0.01------
2024-06-12 10:54 pm-------29.92-------
2024-06-12 10:48 pm-------29.92-------
2024-06-12 10:42 pm-------29.92-------
2024-06-12 10:36 pm-------29.92-------
2024-06-12 10:30 pm-------29.92-------
2024-06-12 10:24 pm-------29.92-------
2024-06-12 10:18 pm-------29.91-------
2024-06-12 10:12 pm-------29.91-------
2024-06-12 10:06 pm-------29.91-------
2024-06-12 10:00 pm-------29.91+0.01------
2024-06-12 09:54 pm-------29.91-------
2024-06-12 09:48 pm-------29.91-------
2024-06-12 09:42 pm-------29.91-------
2024-06-12 09:36 pm-------29.91-------
2024-06-12 09:30 pm-------29.91-------
2024-06-12 09:24 pm-------29.91-------
2024-06-12 09:18 pm-------29.91-------
2024-06-12 09:12 pm-------29.91-------
2024-06-12 09:06 pm-------29.91-------
2024-06-12 09:00 pm-------29.91+0.00------
2024-06-12 08:54 pm-------29.91-------
2024-06-12 08:48 pm-------29.91-------
2024-06-12 08:42 pm-------29.91-------
2024-06-12 08:36 pm-------29.91-------
2024-06-12 08:30 pm-------29.91-------
2024-06-12 08:24 pm-------29.90-------
2024-06-12 08:18 pm-------29.90-------
2024-06-12 08:12 pm-------29.90-------
2024-06-12 08:06 pm-------29.90-------
2024-06-12 08:00 pm-------29.90-0.02------
2024-06-12 07:54 pm-------29.90-------
2024-06-12 07:48 pm-------29.90-------
2024-06-12 07:42 pm-------29.91-------
2024-06-12 07:36 pm-------29.91-------
2024-06-12 07:30 pm-------29.91-------
2024-06-12 07:24 pm-------29.91-------
2024-06-12 07:18 pm-------29.91-------
2024-06-12 07:12 pm-------29.91-------
2024-06-12 07:06 pm-------29.91-------
2024-06-12 07:00 pm-------29.90-0.03------
2024-06-12 06:54 pm-------29.90-------
2024-06-12 06:48 pm-------29.90-------
2024-06-12 06:42 pm-------29.90-------
2024-06-12 06:36 pm-------29.91-------
2024-06-12 06:30 pm-------29.91-------
2024-06-12 06:24 pm-------29.91-------
2024-06-12 06:18 pm-------29.91-------
2024-06-12 06:12 pm-------29.91-------
2024-06-12 06:06 pm-------29.91-------
2024-06-12 06:00 pm-------29.91-0.03------
2024-06-12 05:54 pm-------29.91-------
2024-06-12 05:48 pm-------29.91-------
2024-06-12 05:42 pm-------29.91-------
2024-06-12 05:36 pm-------29.91-------
2024-06-12 05:30 pm-------29.91-------
2024-06-12 05:24 pm-------29.92-------
2024-06-12 05:18 pm-------29.92-------
2024-06-12 05:12 pm-------29.92-------
2024-06-12 05:06 pm-------29.92-------
2024-06-12 05:00 pm-------29.92-0.03------
2024-06-12 04:54 pm-------29.92-------